www.pogodaiklimat.ru

Погода и климат >> Архив погоды >> Ирак >> Chamchamal


ПОГОДА в Chamchamal

  • Прогноз погоды в Chamchamal
  • Монитор погоды в Chamchamal
  • Климат города

АРХИВ ПОГОДЫ в Chamchamal

Время (UTC), дата Ветер
(напр.,м/с)
 
Видим.   Явления Облачность Т
(С)
Тd
(С)
f
(%)
Тe
(С)
Тes
(С)
Комфортность P
(гПа)
Po
(гПа)
Тmin
(С)
Tmax
(С)
R
(мм)
R24
(мм)
S
(см)
09 13.06 штиль 0 10 км 1/1 660 м
[Cu hum]
+34.5 +8.5 20 +33 +59 опасность
солнечного
удара
996.6 997.0
06 14.06 С 3 8000 м мгла ясно +32.8 +8.3 22 +31 +42 жарко 996.8 997.0 +23.3
09 14.06 СВ 3 7000 м мгла 6/6 720 м
[Sc diur, vesp]
+37.2 +5.7 14 +34 +42 очень
жарко
995.2 995.0
12 14.06 В 2 7000 м мгла 8/8 660 м
[Cu Sc]
+37.1 +6.5 15 +35 +37 очень
жарко
994.9 995.0
15 14.06 В 2 8000 м мгла 8/8 660 м
[Cu Sc]
+36.5 +6.2 16 +34 +34 очень
жарко
994.2 994.0
18 14.06 ЮВ 2 8000 м мгла 5/4 720 м
[Cu med, cong Ac trans]
+32.3 +7.6 22 +31 +31 жарко 996.4 996.0 +39.3
03 15.06 штиль 0 8000 м мгла 4/3 720 м
[Cu med, cong Ac trans]
+25.7 +12.5 44 +27 +28 жарко 1001.3 1001.0
06 15.06 С 3 8000 м мгла ясно +31.5 +13.3 33 +33 +43 жарко 1000.6 1001.0 +24.2
09 15.06 ЮВ 3 10 км 4/4 720 м
[Cu med, cong]
+33.5 +11.4 26 +33 +44 жарко 1000.3 1000.0
12 15.06 Ю 5 10 км 5/4 720 м
[Cu med, cong Ac trans]
+35.0 +11.6 24 +35 +38 очень
жарко
999.0 999.0
15 15.06 ЮВ 4 10 км 4/3 720 м
[Cu med, cong Ac trans]
+33.8 +9.5 23 +33 +33 жарко 998.7 999.0
03 16.06 Ю 2 9000 м мгла ясно +24.3 +12.8 49
06 16.06 штиль 0 10 км ясно +32.5 +12.5 30 +33 +50 жарко 1001.5 1002.0 +23.0
09 16.06 штиль 0 10 км 5/5 600 м
[Cu med, cong]
+33.4 +10.5 25 +33 +47 жарко 1001.3 1001.0
12 16.06 З 4 10 км 4/4 600 м
[Cu med, cong]
+34.7 +6.4 17 +32 +38 жарко 999.8 1000.0
15 16.06 Ю 2 8000 м мгла ясно +33.5 +4.5 16 +31 +32 жарко 1000.0 1000.0
18 16.06 Ю 2 9000 м мгла ясно +30.0 +4.5 20 +28 +28 жарко 1001.6 1002.0 +35.5
06 17.06 Ю 1 9000 м мгла ясно +31.5 +11.4 29 +32 +47 жарко 1002.7 1003.0 +22.5
09 17.06 ЮЗ 6 10 км ясно +34.7 +4.4 15 +32 +40 жарко 1001.3 1001.0
12 17.06 Ю 6 9000 м пыльный позёмок 3/3 660 м
[Cu hum]
+36.2 +6.9 17 +34 +38 очень
жарко
999.9 1000.0
15 17.06 Ю 4 10 км 3/1 660 м
[Cu hum Ac trans]
+35.2 +7.8 19 +33 +34 жарко 999.5 1000.0
18 17.06 ЮЗ 4 9000 м мгла 3/0
[Ac trans Ci fib]
+31.2 +5.8 20 +29 +29 жарко 1001.4 1001.0 +37.0
03 18.06 штиль 0 8000 м мгла ясно +24.4 +8.7 37 +25 +27 комфорт 1001.6 1002.0
06 18.06 штиль 0 8000 м мгла ясно +32.8 +8.3 22 +31 +49 жарко 999.5 1000.0 +23.4
09 18.06 Ю 2 8000 м мгла ясно +34.8 +4.9 16 +32 +54 опасность
солнечного
удара
999.0 999.0
12 18.06 ЮЗ 2 9000 м мгла ясно +36.0 +4.4 14 +33 +46 жарко 998.2 998.0
15 18.06 Ю 2 10 км ясно +34.5 +5.7 17 +32 +33 жарко 998.5 999.0
18 18.06 ЮЗ 2 10 км ясно +29.0 +5.1 22 +28 +28 жарко 1000.2 1000.0 +37.0
03 19.06 штиль 0 9000 м мгла ясно +23.5 +12.2 49 +25 +27 комфорт 1003.5 1004.0
12 19.06 ЮЗ 5 9000 м мгла ясно +34.5 +4.6 15 +32 +39 жарко 1001.4 1001.0
15 19.06 З 3 10 км ясно +33.8 +6.5 18 +32 +33 жарко 1001.6 1002.0
06 20.06 В 1 9000 м мгла ясно +31.7 +8.6 24 +31 +46 жарко 1004.0 1004.0 +22.0

 

Местоположение метеостанции Chamchamal (Ирак): широта 35.52 долгота 44.83 высота над уровнем моря 701 м.

В архиве по умолчанию представлена погода в Chamchamal за последнюю неделю. Архивные данные за месяц целиком и за предыдущие месяцы, начиная с января 2011 года, Вы можете получить, выбрав интересующий диапазон дат из раскрывающегося списка и нажав кнопку "Ввод!".


*Определитесь, кто Вы:
робот инопланетянин человек

Внимание! Время в таблицах - всемирное. Для получения местного времени необходимо прибавить поправку, которая в Chamchamal равна 3 ч.

Смотрите также архив погоды в соседних городах и на ближайших метеорологических станциях:

Погода в Kirkuk (Ирак) (39 км)
Погода в Sulaimaniya (Ирак) (56 км)
Погода в Tuz (Ирак) (73 км)
Погода в Erbeel (Ирак) (103 км)
Погода в Halabcha (Ирак) (108 км)
Погода в Salahadin (Ирак) (111 км)
Погода в Makhmoor (Ирак) (114 км)
Погода в Baiji (Ирак) (139 км)
Погода в Khanaqin (Ирак) (146 км)
Погода в Tikrit (Ирак) (147 км)

Пояснения к столбцам:

Ветер - указаны скорость ветра в м/с - средняя за 10 мин, порывы в срок и между сроками (в фигурных скобках) и направление, откуда дует ветер: С - северный, СВ - северо-восточный, В - восточный, ЮВ - юго-восточный, Ю - южный, ЮЗ - юго-западный, З - западный, СЗ - северо-западный.
Видимость - горизонтальная дальность видимости в метрах или километрах. При видимости от 1 до 10 км при отсутствии осадков обычно наблюдается дымка, при ухудшении видимости до 1 км и менее - туман. В сухую погоду видимость может ухудшаться дымом, пылью или мглою.
Явления - указаны атмосферные явления, наблюдавшиеся в срок или в последний час перед сроком; фигурными скобками обозначены явления, наблюдавшиеся между сроками (за 1-3 часа до срока); квадратными скобками обозначены град или гололедные отложения с указанием их диаметра в мм.
Облачность - указаны через наклонную черту общая и нижняя облачность в баллах и высота нижней границы облаков в метрах; квадратными скобками обозначены формы облаков: Ci - перистые, Cs - перисто-слоистые, Cc - перисто-кучевые, Ac - высококучевые, As - высокослоистые, Sc - слоисто-кучевые, Ns - слоисто-дождевые, Cu - кучевые, Cb - кучево-дождевые. Подробнее классификацию облаков см. в Атласе облаков (PDF).
T - Температура воздуха - температура, измеренная на высоте 2 м над землей.
Td - Температура точки росы - температура, при понижении до которой содержащийся в воздухе водяной пар достигнет насыщения.
f - Относительная влажность воздуха - влажноcть воздуха, измеренная на высоте 2 м над землей.
Te - Эффективная температура - температура, которую ощущает одетый по сезону человек в тени. Характеристика душности погоды. При расчете учитывается влияние влажности воздуха и скорости ветра на теплоощущения человека.
Tes - Эффективная температура на солнце - температура, которую ощущает человек, с поправкой на солнечный нагрев. Характеристика знойности погоды. Зависит от высоты солнца над горизонтом, облачности и скорости ветра. Ночью, в пасмурную погоду, а также при ветре 12 м/с и более поправка равна нулю.
P - Атмосферное давление - приведенное к уровню моря атмосферное давление.
Po - Атмосферное давление - измеренное на уровне метеостанции атмосферное давление.
Tmin - Минимальная температура - минимум температуры воздуха на высоте 2 м над землей.
Tmax - Максимальная температура - максимум температуры воздуха на высоте 2 м над землей.
R - Количество осадков - Количество выпавших осадков за период времени, мм. При наведении курсора мыши на число - период времени, за который выпало указанное количество осадков.
R24 - Количество осадков - Количество выпавших осадков за 24 часа, мм.
S - Снежный покров - Высота снежного покрова, см. При наведении курсора мыши на число - состояние снежного покрова и степень покрытия местности в баллах.